Home > Weather > Kansas City > Past weeks

Flag for U.S.A. Weather for the Past 2 Weeks in Kansas City, Missouri, U.S.A.

Now
29 °F

Clear.


Feels Like: 22 °F
Forecast: 20 / 29 °F
Wind: 7 mph from Northwest

Location: Kansas City Downtown Airport

Current Time: Feb 8, 2016 at 10:48:04 PM

Latest Report: Feb 8, 2016 at 9:54 PM


Visibility: 10 mi

Pressure: 30.11 "Hg

Humidity: 58%

Dew point: 16 °F

Location of Kansas CityLocation

Historic Weather in Kansas City — Graph

°F

Kansas City Temperature Yesterday

Maximum temperature yesterday: 52 °F (at 1:54 PM)
Minimum temperature yesterday: 39 °F (at 7:54 PM)
Average temperature yesterday: 45 °F

High & Low Weather Summary for the Past Weeks

 TemperatureHumidityPressure
High66 °F (Jan 29, 3:54 PM)93% (Jan 29, 12:54 AM)30.45 "Hg (Jan 29, 12:54 AM)
Low22 °F (Feb 4, 2:54 AM)24% (Feb 7, 4:54 PM)29.35 "Hg (Feb 2, 1:54 PM)
Average40 °F62%29.98 "Hg
* Reported Jan 24 8:54 PM — Feb 8 8:54 PM, Kansas City, Weather by CustomWeather, © 2016

Note: Actual official high and low records may vary slightly from our data, if they occured in-between our weather recording intervals... More about our weather records

Advertising

Kansas City Weather History for the Previous 24 Hours

 ConditionsComfort  
Time TempWeatherWind HumidityBarometerVisibility
8:54 PM
Mon, Feb 8
30 °FClear.10 mph56%30.11 "Hg10 mi
7:54 PM31 °FPassing clouds.10 mph52%30.12 "Hg10 mi
6:54 PM32 °FPassing clouds.17 mph52%30.11 "Hg10 mi
5:54 PM32 °FPassing clouds.16 mph50%30.11 "Hg10 mi
4:54 PM33 °FOvercast.18 mph49%30.10 "Hg10 mi
3:54 PM34 °FOvercast.21 mph44%30.07 "Hg10 mi
2:54 PM33 °FOvercast.23 mph52%30.06 "Hg10 mi
1:54 PM32 °FOvercast.17 mph52%30.06 "Hg10 mi
12:54 PM32 °FMostly cloudy.16 mph59%30.07 "Hg10 mi
11:54 AM32 °FLight snow. More clouds than sun.22 mph64%30.08 "Hg7 mi
10:54 AM31 °FLight snow. Overcast.18 mph64%30.08 "Hg4 mi
9:54 AM32 °FOvercast.15 mph54%30.07 "Hg10 mi
8:54 AM33 °FOvercast.23 mph56%30.03 "Hg10 mi
7:54 AM33 °FMostly cloudy.23 mph52%30.01 "Hg10 mi
6:54 AM33 °FPassing clouds.21 mph49%30.01 "Hg10 mi
5:54 AM34 °FLight snow. Mostly cloudy.17 mph64%30.00 "Hg6 mi
4:54 AM35 °FOvercast.13 mph56%29.98 "Hg10 mi
3:54 AM36 °FOvercast.20 mph54%29.98 "Hg10 mi
2:54 AM36 °FMostly cloudy.15 mph57%30.00 "Hg10 mi
1:54 AM37 °FMostly cloudy.26 mph50%29.99 "Hg10 mi
12:54 AM38 °FMostly cloudy.20 mph55%29.99 "Hg10 mi
11:54 PM
Sun, Feb 7
39 °FMostly cloudy.13 mph57%30.00 "Hg10 mi
10:54 PM39 °FMostly cloudy.18 mph57%30.01 "Hg10 mi
Weather by CustomWeather, © 2016

See weather overviewHow to use our weather pages